sat.trackr.live / text

‹ back to catalog

KUIPER-00119

NORAD 65155 · 2025-171Z

PAYLOAD ACTIVE UNKNOWN

§ Identity

Operator
Country
US
Launch date
2025-08-11
Launch site
AFETR
Launch vehicle
Mass (kg)
RCS (m²)

External: N2YO · Heavens-Above · Gunter

§ Orbital elements

Epoch: 2026-05-23T12:56:47.633280Z

Period
97.32 min
Inclination
51.9002°
Eccentricity
0.0001280
Mean motion
14.79627262 rev/d
Perigee alt
629.6 km
Apogee alt
631.4 km
Semi-major
7,008.6 km
B*
5.3720e-3
RAAN
192.2951°
Arg perigee
103.5757°
Mean anomaly
256.5348°
Rev number
4,389

§ Raw data

KUIPER-001191 65155U 25171Z   26143.53944020  .00040682  00000+0  53720-2 0  99992 65155  51.9002 192.2951 0001280 103.5757 256.5348 14.79627262 43892

JSON: /api/v1/satellites/65155 · /tle

For live sub-satellite position, see the globe view (requires WebGL).

§ Visibility from observer

Set your observer location to see the next 7 days of passes ≥ 10°. The values pass through the URL so the page stays shareable.

No JS? Fill the form by hand. The geolocation button needs JavaScript.